Regional Weather Roundup
Issued by NWS Newport/Morehead, NC

Current Version | Previous Version | Graphics & Text | Print | Product List | Glossary On
Versions: 1 2 3 4 5 6 7 8 9 10 11 12 13 14 15 16 17 18 19 20 21 22 23 24 25 26 27 28 29 30 31 32 33 34 35 36 37 38 39 40 41 42 43 44 45 46 47 48 49 50
000 ASUS42 KMHX 010325 RWRMHX WEATHER ROUNDUP FOR EASTERN NORTH CAROLINA NATIONAL WEATHER SERVICE NEWPORT/MOREHEAD CITY NC 1100 PM EDT TUE MAY 31 2016 NOTE: "FAIR" INDICATES FEW OR NO CLOUDS BELOW 12,000 FEET WITH NO SIGNIFICANT WEATHER AND/OR OBSTRUCTIONS TO VISIBILITY NCZ015>017-031-032-045>047-102-103-010400- NORTH COAST CITY SKY/WX TMP DP RH WIND PRES REMARKS EDENTON CLEAR 71 71 100 NE3 29.99S ELIZABETH CITY PTCLDY 70 67 90 E5 29.99S KITTY HAWK PTCLDY 69 67 94 CALM 29.96F MANTEO PTCLDY 70 70 100 NE7 29.98S $$ NCZ045>047-081-094-103-104-010400- CENTRAL COAST CITY SKY/WX TMP DP RH WIND PRES REMARKS FRISCO CLOUDY 72 71 97 NE6 29.96F $$ NCZ095-097-098-100-101-010400- SOUTHERN COAST CITY SKY/WX TMP DP RH WIND PRES REMARKS BEAUFORT CLOUDY 74 73 97 NE7 29.95S CEDAR ISLAND NOT AVBL JACKSONVILLE CLOUDY 74 71 91 NE12 29.94R PINEY ISLAND NOT AVBL WILMINGTON CLOUDY 74 72 93 NE6 29.94R $$ NCZ011>013-027>030-043-044-078>080-089-090>093-098-010400- COASTAL PLAIN CITY SKY/WX TMP DP RH WIND PRES REMARKS AHOSKIE PTCLDY 69 67 93 CALM 30.00S CLINTON CLOUDY 73 72 96 NE3 29.97R ELIZABETHTOWN MOCLDY 73 72 99 CALM 29.95S GOLDSBORO PTCLDY 73 73 100 NE8 29.95S GREENVILLE MOCLDY 72 70 94 E6 30.00S HAVELOCK CLOUDY 73 71 93 NE8 29.96R KENANSVILLE MOCLDY 72 70 94 CALM 29.98R KINSTON CLOUDY 73 71 93 NE7 29.97F NEW BERN CLEAR 72 69 90 NE6 29.97R RICHLANDS MOCLDY 72 71 97 NE9 29.96R ROCKY MOUNT PTCLDY 72 70 93 CALM 29.98S WASHINGTON CLEAR 69 68 97 CALM 29.97F WHITEVILLE PTCLDY 72 71 96 CALM 29.94S $$ AMZ130-135-150-152-154-156-158-170-250-252-270-ANZ085-086-088-633-658-670-010400- MARINE OBSERVATIONS STATION/POSITION TIME TEMP WIND PRES WAVE SWELL AIR SEA DIR/SP/G HT/PER HT/PER (UTC) (F) (DEG/KT/KT) (MB) (FT/S) (FT/S) CHESAPEAKE LIGHT 0300 71 100/ 7/ 8 1016.3 64 E VA BEACH 0250 72 66 70/ 6/ 8 1015.1 4/ 8 3/ 8 DUCK 0200 65 N/A 2 E DUCK 0211 67 N/A 3/ 8 OREGON INLET 0200 72 N/A 13E OREGON INLT 0300 70 N/A 3/ 8 HATTERAS CG 0200 76 N/A DIAMOND BUOY 0250 75 80 230/ 6/ 12 1014.5 3/ 8 3/ 8 CAPE LOOKOUT 0300 76 40/ 9/ 9 1013.7 BEAUFORT LAB 0200 76 N/A 30 SE NEW RVR IN 0225 76 N/A 4/ 7 27 SE WRIGHTSVLE 0308 76 76 140/ 4/ 8 1013.2 5 SE WRIGHTSVLE 0208 76 76 70/ 14/ 19 1013.2 225 S CAPE HAT 0250 77 77 150/ 12/ 14 1015.5 4/ 8 3/ 8 41 SE CHARLESTON 0250 76 77 300/ 8/ 10 1013.2 3/ 8 3/ 8 $$

USA.gov is the U.S. government's official web portal to all federal, state and local government web resources and services.